Погода в Краснообске

Россия / Новосибирская область     54°55′16″N   82°59′28″E
темп.,
°C
ветер,
м/с
пор.,
м/с
влажн.,
%
обл.,
%
осадки,
мм/ч
давл.,
гПа
погр.,
м
21 апреля, ср
ср2101:00−4ююз3766100 0.0 1024390
04:00−3ююз5960100 0.0 1022616
07:00−3ююз6959100 0.0 10211025
10:00−2ююз7957100 0.0 10211162
13:00−2ююз6886100 0.3 1021849
16:00−1ююв4582100 1.1 1021820
19:00−1в4589100 1.8 1023463
22:00−2в488899 0.6 1028538
22 апреля, чт
чт2201:00−3ссв36915 0.6 1030145
04:00−4ссв49875 0.0 1033241
07:00−4ссв510865 0.0 1037338
10:00−1св69695 0.0 1039878
13:00+2св7854100 0.0 10411725
16:00+3св6854100 0.1 10421697
19:00+2ссв576873 0.2 10431065
22:00−1ссв410855 0.1 1045265
23 апреля, пт
пт2301:00−2ссв39885 0.1 1046265
04:00−2ссв49885 0.0 1046265
07:00−2ссв49865 0.0 1046364
10:00+2св68698 0.0 1046875
13:00+4св785359 0.0 10451552
16:00+5св785070 0.0 10431736
19:00+4св58585 0.0 1043851
22:000ссв36795 0.0 1043111
24 апреля, сб
сб2401:00−1ссв37845 0.0 1042149
04:00−1ссв39865 0.0 1040204
07:00−1ссв498365 0.0 1039296
10:00+3ссв6866100 0.0 1038655
13:00+5ссв6754100 0.0 10361364
16:00+7ссв674975 0.0 10341738
19:00+6ссв465799 0.0 10341237
22:00+3с487899 0.0 1034194
25 апреля, вс
вс2501:00+1с368773 0.0 1033115
04:000с238859 0.0 103368
07:00+1с24868 0.0 1034101
10:00+5ссв23675 0.0 1033588
13:00+8с115255 0.0 10321389
16:00+10зюз224293 0.0 10311729
19:00+9ююз224894 0.0 1030505
22:00+5ю2261100 0.0 103146